TimeCDT,TemperatureF,Dew PointF,Humidity,Sea Level PressureIn,VisibilityMPH,Wind Direction,Wind SpeedMPH,Gust SpeedMPH,PrecipitationIn,Events,Conditions,WindDirDegrees,DateUTC
12:53 AM,48.0,46.0,93,30.14,10.0,Calm,Calm,-,N/A,,Clear,0,2013-10-08 05:53:00
1:18 AM,48.2,46.4,93,30.14,2.0,Calm,Calm,-,N/A,,Clear,0,2013-10-08 06:18:00
1:28 AM,48.2,46.4,93,30.14,5.0,Calm,Calm,-,N/A,,Clear,0,2013-10-08 06:28:00
1:53 AM,48.0,45.0,89,30.14,10.0,Calm,Calm,-,N/A,,Clear,0,2013-10-08 06:53:00
2:11 AM,48.2,46.4,93,30.15,1.8,Calm,Calm,-,N/A,,Clear,0,2013-10-08 07:11:00
2:23 AM,48.2,46.4,93,30.14,4.0,Calm,Calm,-,N/A,,Clear,0,2013-10-08 07:23:00
2:53 AM,48.0,46.0,93,30.14,8.0,Calm,Calm,-,N/A,,Clear,0,2013-10-08 07:53:00
3:39 AM,46.4,44.6,93,30.15,1.8,Calm,Calm,-,N/A,,Clear,0,2013-10-08 08:39:00
3:53 AM,46.9,45.0,93,30.15,2.5,Calm,Calm,-,N/A,,Clear,0,2013-10-08 08:53:00
4:00 AM,46.4,44.6,93,30.15,8.0,Calm,Calm,-,N/A,,Clear,0,2013-10-08 09:00:00
4:29 AM,48.2,44.6,87,30.15,1.5,Calm,Calm,-,N/A,,Clear,0,2013-10-08 09:29:00
4:38 AM,44.6,42.8,93,30.15,0.2,Calm,Calm,-,N/A,Fog,Fog,0,2013-10-08 09:38:00
4:53 AM,46.0,44.1,93,30.16,0.8,Calm,Calm,-,N/A,,Mist,0,2013-10-08 09:53:00
4:56 AM,46.4,44.6,93,30.16,1.5,Calm,Calm,-,N/A,,Partly Cloudy,0,2013-10-08 09:56:00
4:58 AM,46.4,44.6,93,30.16,5.0,Calm,Calm,-,N/A,,Partly Cloudy,0,2013-10-08 09:58:00
5:50 AM,46.4,44.6,93,30.17,1.8,Calm,Calm,-,N/A,,Clear,0,2013-10-08 10:50:00
5:53 AM,46.0,44.1,93,30.17,1.8,Calm,Calm,-,N/A,,Clear,0,2013-10-08 10:53:00
5:58 AM,46.4,44.6,93,30.17,4.0,Calm,Calm,-,N/A,,Clear,0,2013-10-08 10:58:00
6:37 AM,44.6,42.8,93,30.18,1.5,Calm,Calm,-,N/A,,Clear,0,2013-10-08 11:37:00
6:44 AM,46.4,44.6,93,30.18,0.5,Calm,Calm,-,N/A,Fog,Fog,0,2013-10-08 11:44:00
6:53 AM,46.0,44.1,93,30.18,0.5,Calm,Calm,-,N/A,Fog,Fog,0,2013-10-08 11:53:00
7:02 AM,44.6,42.8,93,30.18,0.2,Calm,Calm,-,N/A,Fog,Fog,0,2013-10-08 12:02:00
7:18 AM,46.4,44.6,93,30.19,1.0,Calm,Calm,-,N/A,,Clear,0,2013-10-08 12:18:00
7:22 AM,46.4,44.6,93,30.19,3.0,Calm,Calm,-,N/A,,Clear,0,2013-10-08 12:22:00
7:53 AM,50.0,46.9,89,30.20,10.0,Calm,Calm,-,N/A,,Clear,0,2013-10-08 12:53:00
8:53 AM,57.0,51.1,81,30.21,10.0,ENE,5.8,-,N/A,,Clear,70,2013-10-08 13:53:00
9:53 AM,62.1,50.0,65,30.21,10.0,ENE,6.9,-,N/A,,Clear,70,2013-10-08 14:53:00
10:53 AM,66.0,46.0,48,30.20,10.0,East,9.2,18.4,N/A,,Clear,100,2013-10-08 15:53:00
11:53 AM,68.0,43.0,40,30.19,10.0,ENE,16.1,21.9,N/A,,Clear,70,2013-10-08 16:53:00
12:53 PM,71.1,44.1,38,30.17,10.0,ENE,13.8,19.6,N/A,,Clear,70,2013-10-08 17:53:00
1:53 PM,71.1,44.1,38,30.14,10.0,East,12.7,21.9,N/A,,Clear,80,2013-10-08 18:53:00
2:53 PM,72.0,43.0,35,30.12,10.0,NE,8.1,18.4,N/A,,Clear,50,2013-10-08 19:53:00
3:53 PM,72.0,43.0,35,30.11,10.0,East,10.4,-,N/A,,Clear,90,2013-10-08 20:53:00
4:53 PM,71.1,44.1,38,30.11,10.0,East,9.2,-,N/A,,Clear,90,2013-10-08 21:53:00
5:53 PM,66.9,45.0,45,30.12,10.0,East,5.8,-,N/A,,Clear,80,2013-10-08 22:53:00
6:53 PM,59.0,48.0,67,30.12,10.0,Calm,Calm,-,N/A,,Clear,0,2013-10-08 23:53:00
7:53 PM,55.0,48.9,80,30.13,10.0,Calm,Calm,-,N/A,,Clear,0,2013-10-09 00:53:00
8:53 PM,53.1,48.9,86,30.14,10.0,Calm,Calm,-,N/A,,Clear,0,2013-10-09 01:53:00
9:53 PM,53.1,48.0,83,30.13,10.0,Calm,Calm,-,N/A,,Clear,0,2013-10-09 02:53:00
10:53 PM,52.0,48.0,86,30.13,10.0,Calm,Calm,-,N/A,,Clear,0,2013-10-09 03:53:00
11:53 PM,51.1,48.0,89,30.12,10.0,Calm,Calm,-,N/A,,Clear,0,2013-10-09 04:53:00